User: anonymous   Login
Location: Newark
(47.5833°N, 8.1500°E)
Time: 21:03:15
(UTC+00:00)
Language:

A-11 Canister half - Orbit

View from above orbital plane
View from above orbital plane
View from above satellite
View from above satellite

Ground track
Ground track

The orbit data is extracted from the following two-line orbital elements,

1    53U 60009E   20301.76592093 -.00000138 +00000-0 -51288-3 0  9991
2    53 047.2749 210.9609 0098078 111.1264 250.0040 12.17246558684682
Epoch (UTC): 27 October 2020 18:22:55
Eccentricity: 0.0098078
inclination: 47.2749°
perigee height: 1526 km
apogee height: 1683 km
right ascension of ascending node: 210.9609°
argument of perigee: 111.1264°
revolutions per day: 12.17246558
mean anomaly at epoch: 250.0040°
orbit number at epoch: 68468

The dashed part of the orbit path shows where the satellite is in the earth's shadow,  

DLR